Regional Weather Roundup
Issued by NWS

Home | Current Version | Previous Version | Graphics & Text | Print | Product List | Glossary Off
Versions: 1 2 3 4 5 6 7 8 9 10 11 12 13 14 15 16 17 18 19 20 21 22 23 24 25 26 27 28 29 30 31 32 33 34 35 36 37 38 39 40 41 42 43 44 45 46 47 48 49 50

000
ASUS43 KDMX 012303
RWRIA

WEATHER ROUNDUP FOR IOWA
NATIONAL WEATHER SERVICE DES MOINES IA
600 PM CDT SUN MAY 01 2016

NOTE: "FAIR" INDICATES FEW OR NO CLOUDS BELOW 12,000 FEET WITH NO
SIGNIFICANT WEATHER AND/OR OBSTRUCTIONS TO VISIBILITY.

* - THESE STATIONS ARE NOT NWS STATIONS...THUS NOT UNDER NWS
QUALITY CONTROL.  THEY ALSO DO NOT REPORT WEATHER SUCH
AS PRECIPITATION OR FOG.

IAZ001>003-012>014-020>022-031>034-043>046-020000-
   NORTHWEST IOWA

CITY           SKY/WX    TMP DP  RH WIND       PRES   REMARKS
CARROLL *      CLOUDY    50  45  81 NE14G21   30.09S
CHEROKEE *     PTSUNNY   55  42  62 N10       30.12S
DENISON *      CLOUDY    50  45  81 NE14G22   30.08S
LE MARS *      CLOUDY    54  41  62 N8G14     30.14S
ORANGE CITY *  PTSUNNY   54  39  58 N8        30.14S
SHELDON *      MOSUNNY   55  41  58 N14       30.12S
SIOUX CITY     CLOUDY    55  40  56 N15       30.13F
SPENCER        PTSUNNY   54  39  57 N12       30.12S
STORM LAKE *   PTSUNNY   54  41  62 NE12G18   30.11S
$$

IAZ055>058-069>071-079>083-090>094-020000-
   SOUTHWEST IOWA

CITY           SKY/WX    TMP DP  RH WIND       PRES   REMARKS
ATLANTIC *     CLOUDY    48  43  81 N12G17    30.09R
AUDUBON *      CLOUDY    48  45  87 N13G18    30.09S
CLARINDA *       N/A    N/A N/A N/A MISG        N/A
COUNCIL BLFS * CLOUDY    48  45  87 N9        30.11R
CRESTON *      CLOUDY    48  43  81 N14       30.07S
HARLAN  *      CLOUDY    48  43  81 N15       30.12F
LAMONI         CLOUDY    47  44  90 N8        30.06R
RED OAK *      CLOUDY    50  45  81 N12G18    30.10R
SHENANDOAH *   CLOUDY    50  45  81 N12G18    30.11R
$$

IAZ047>049-059>061-072>074-084-020000-
   CENTRAL IOWA

CITY           SKY/WX    TMP DP  RH WIND       PRES   REMARKS
AMES           CLOUDY    49  46  90 N13       30.07F
ANKENY *       CLOUDY    48  48 100 N15       30.06S
BOONE *        PTSUNNY   48  46  93 N15       30.07S
CHARITON *     CLOUDY    48  46  93 N10       30.04R
DES MOINES     CLOUDY    49  43  80 NE12G22   30.06S
GRINNELL*      LGT RAIN  46  46 100 N14       30.05R
KNOXVILLE *    CLOUDY    48  45  87 N10       30.03R
MARSHALLTOWN   LGT RAIN  49  45  86 N15       30.06S
NEWTON *       CLOUDY    48  48 100 N15       30.05R
PELLA *        CLOUDY    48  46  93 N7G16     30.06R
$$

IAZ004>006-015-016-023>025-035-036-020000-
   NORTH CENTRAL IOWA

CITY           SKY/WX    TMP DP  RH WIND       PRES   REMARKS
ALGONA *       CLOUDY    55  43  62 N12       30.10S
CLARION *      CLOUDY    52  46  82 NE8       30.09S
ESTHERVILLE    CLOUDY    54  41  61 N13       30.11R
FORT DODGE *   CLOUDY    52  43  71 N6        30.10S
MASON CITY     LGT RAIN  52  44  74 N9        30.10R
FOREST CITY *  DRIZZLE   52  41  66 CALM      30.10R
WEBSTER CITY * PTSUNNY   52  46  82 N15       30.07S
IOWA FALLS *   LGT RAIN  48  46  93 N7        30.09S
$$

IAZ007>011-017>019-026>030-037>042-050>054-066-020000-
   NORTHEAST IOWA

CITY           SKY/WX    TMP DP  RH WIND       PRES   REMARKS
CEDAR RAPIDS   LGT RAIN  49  48  97 N8        30.02R FOG
CHARLES CITY * PTSUNNY   50  50 100 NE3       30.10R
CLINTON *      LGT RAIN  49  48  97 NE9       29.99S FOG
DECORAH *      CLOUDY    48  48 100 CALM      30.08R
DUBUQUE        CLOUDY    49  47  93 N6        30.03R
MONTICELLO *   LGT RAIN  48  48 100 N10       30.02S
OELWEIN *      LGT RAIN  48  48 100 NE12      30.08R
WATERLOO       LGT RAIN  48  45  89 NE12      30.08R FOG
$$

IAZ064-065-067-068-078-020000-
   EAST CENTRAL IOWA

CITY           SKY/WX    TMP DP  RH WIND       PRES   REMARKS
DAVENPORT      LGT RAIN  49  47  93 NW10      30.00R FOG
IOWA CITY      LGT RAIN  49  47  93 N6        30.04R
MT. PLEASANT * CLOUDY    52  52 100 N10       30.00S
MUSCATINE *    HVY RAIN  50  48  93 N7        30.02R
QUAD CITIES    HVY RAIN  50  47  89 NW6       29.98R FOG
$$

IAZ062-063-075>077-085>089-095>099-020000-
   SOUTHEAST IOWA

CITY           SKY/WX    TMP DP  RH WIND       PRES   REMARKS
BURLINGTON     CLOUDY    50  50 100 N9        29.99R FOG
FAIRFIELD *    PTSUNNY   48  48 100 N12       30.01S FOG
FORT MADISON * CLOUDY    50  48  93 N8        30.00R FOG
KEOKUK *       CLOUDY    52  52 100 N7        29.98S FOG
OSKALOOSA *    LGT RAIN  48  46  93 N10       30.02F
OTTUMWA        LGT RAIN  48  47  96 N13       30.02S
WASHINGTON *   RAIN      48  48 100 N8        30.03R
$$

ABBREVIATIONS USED IN REMARKS
   TC - TEMPERATURES IN CELSIUS
  WCI - WIND CHILL INDEX
   HX - HEAT INDEX
  VSB - VISIBILITY
$$




USA.gov is the U.S. government's official web portal to all federal, state and local government web resources and services.